TVS99D EBBR-LKPR

Flight info

Callsign TVS99D
Flight time 1h 6m
Altitude 37000
Route SOPOK Y863 OGLOR DCT EMGOD DCT BOMBI DCT BOREP DCT TONSU Z35 ODOMO DCT LOMKI
Aircraft B738/M-SDE2E3FGHIRWXY/LB1

Departure

Time 2026-05-06 16:55
Airport Brussels Airport (EBBR)

Arrival

Time 2026-05-06 18:01
Airport Václav Havel Airport Prague (LKPR)
Time Latitude Longitude Altitude Speed Heading
2026-05-06 16:24 50.90345 4.48374 184 ft 0 kts 155°
2026-05-06 16:44 50.90358 4.48365 184 ft 4 kts 156°
2026-05-06 16:44 50.90383 4.48348 184 ft 4 kts 155°
2026-05-06 16:45 50.90406 4.48329 184 ft 4 kts 148°
2026-05-06 16:45 50.90429 4.48306 184 ft 4 kts 148°
2026-05-06 16:45 50.90440 4.48295 195 ft 1 kts 145°
2026-05-06 16:48 50.90434 4.48299 184 ft 3 kts 161°
2026-05-06 16:48 50.90415 4.48272 184 ft 6 kts 247°
2026-05-06 16:49 50.90390 4.48189 184 ft 9 kts 244°
2026-05-06 16:49 50.90371 4.48094 184 ft 9 kts 269°
2026-05-06 16:49 50.90407 4.48027 189 ft 9 kts 359°
2026-05-06 16:49 50.90444 4.48096 184 ft 9 kts 64°
2026-05-06 16:50 50.90474 4.48192 181 ft 12 kts 65°
2026-05-06 16:50 50.90511 4.48320 181 ft 13 kts 65°
2026-05-06 16:50 50.90548 4.48450 183 ft 13 kts 66°
2026-05-06 16:50 50.90572 4.48535 184 ft 13 kts 65°
2026-05-06 16:51 50.90625 4.48716 183 ft 16 kts 65°
2026-05-06 16:51 50.90672 4.48876 183 ft 16 kts 65°
2026-05-06 16:51 50.90716 4.49033 183 ft 15 kts 66°
2026-05-06 16:51 50.90759 4.49182 184 ft 15 kts 65°
2026-05-06 16:52 50.90800 4.49326 184 ft 14 kts 65°
2026-05-06 16:52 50.90840 4.49462 184 ft 13 kts 65°
2026-05-06 16:52 50.90878 4.49593 183 ft 13 kts 65°
2026-05-06 16:52 50.90915 4.49721 183 ft 13 kts 65°
2026-05-06 16:53 50.90962 4.49833 183 ft 12 kts 39°
2026-05-06 16:53 50.91030 4.49909 182 ft 12 kts 27°
2026-05-06 16:53 50.91103 4.49946 181 ft 8 kts 356°
2026-05-06 16:53 50.91135 4.49883 181 ft 9 kts 267°
2026-05-06 16:54 50.91071 4.49648 183 ft 50 kts 245°
2026-05-06 16:54 50.90837 4.48820 186 ft 114 kts 244°
2026-05-06 16:54 50.90430 4.47416 182 ft 164 kts 247°
2026-05-06 16:54 50.89940 4.45650 575 ft 175 kts 248°
2026-05-06 16:55 50.89597 4.44487 1068 ft 179 kts 248°
2026-05-06 16:55 50.88877 4.42042 1771 ft 193 kts 247°
2026-05-06 16:55 50.88365 4.40847 2129 ft 200 kts 221°
2026-05-06 16:55 50.86575 4.40066 2667 ft 215 kts 164°
2026-05-06 16:56 50.85655 4.40696 2940 ft 215 kts 139°
2026-05-06 16:56 50.84696 4.42519 3218 ft 225 kts 121°
2026-05-06 16:56 50.83764 4.44624 3484 ft 242 kts 122°
2026-05-06 16:56 50.82748 4.46898 3807 ft 260 kts 123°
2026-05-06 16:57 50.81336 4.50031 4632 ft 267 kts 123°
2026-05-06 16:57 50.80612 4.51649 5134 ft 267 kts 123°
2026-05-06 16:57 50.79531 4.54065 5842 ft 269 kts 123°
2026-05-06 16:57 50.78442 4.56475 6559 ft 271 kts 124°
2026-05-06 16:58 50.77336 4.58889 7264 ft 272 kts 124°
2026-05-06 16:58 50.76209 4.61352 7828 ft 280 kts 124°
2026-05-06 16:58 50.75083 4.63848 8659 ft 278 kts 125°
2026-05-06 16:58 50.73832 4.66166 9270 ft 287 kts 131°
2026-05-06 16:59 50.72515 4.68511 10087 ft 284 kts 131°
2026-05-06 16:59 50.71173 4.70902 10497 ft 300 kts 131°
2026-05-06 16:59 50.69754 4.73486 10740 ft 320 kts 126°
2026-05-06 16:59 50.68782 4.76696 11145 ft 331 kts 107°
2026-05-06 17:00 50.68131 4.80222 11782 ft 336 kts 105°
2026-05-06 17:00 50.67485 4.83743 12617 ft 336 kts 107°
2026-05-06 17:00 50.66791 4.87296 13272 ft 342 kts 107°
2026-05-06 17:00 50.66077 4.90903 13951 ft 347 kts 108°
2026-05-06 17:01 50.65355 4.94542 14639 ft 350 kts 108°
2026-05-06 17:01 50.64625 4.98219 15286 ft 355 kts 109°
2026-05-06 17:01 50.63883 5.01959 15919 ft 360 kts 109°
2026-05-06 17:01 50.63033 5.05688 16545 ft 364 kts 117°
2026-05-06 17:02 50.61786 5.09165 17208 ft 367 kts 123°
2026-05-06 17:02 50.60439 5.12599 17860 ft 371 kts 124°
2026-05-06 17:02 50.59057 5.16066 18438 ft 376 kts 124°
2026-05-06 17:02 50.57663 5.19570 19002 ft 379 kts 123°
2026-05-06 17:03 50.56266 5.23103 19641 ft 380 kts 123°
2026-05-06 17:03 50.54873 5.26644 20274 ft 382 kts 123°
2026-05-06 17:03 50.53473 5.30218 20859 ft 385 kts 123°
2026-05-06 17:03 50.52066 5.33815 21449 ft 388 kts 123°
2026-05-06 17:04 50.50651 5.37435 22010 ft 391 kts 123°
2026-05-06 17:04 50.49222 5.41087 22571 ft 393 kts 123°
2026-05-06 17:04 50.47785 5.44759 23127 ft 396 kts 123°
2026-05-06 17:04 50.46335 5.48458 23632 ft 399 kts 122°
2026-05-06 17:05 50.44876 5.52171 24099 ft 401 kts 122°
2026-05-06 17:05 50.43429 5.55853 24586 ft 402 kts 122°
2026-05-06 17:05 50.41960 5.59583 25077 ft 403 kts 122°
2026-05-06 17:05 50.40483 5.63329 25528 ft 404 kts 122°
2026-05-06 17:06 50.38997 5.67092 25969 ft 406 kts 122°
2026-05-06 17:06 50.37505 5.70864 26407 ft 408 kts 122°
2026-05-06 17:06 50.36006 5.74647 26830 ft 410 kts 122°
2026-05-06 17:06 50.34498 5.78450 27248 ft 412 kts 122°
2026-05-06 17:07 50.32983 5.82264 27648 ft 414 kts 122°
2026-05-06 17:07 50.31457 5.86099 28031 ft 416 kts 123°
2026-05-06 17:07 50.29926 5.89944 28422 ft 418 kts 123°
2026-05-06 17:07 50.28383 5.93812 28815 ft 420 kts 123°
2026-05-06 17:08 50.26834 5.97688 29176 ft 422 kts 123°
2026-05-06 17:08 50.25275 6.01586 29528 ft 424 kts 123°
2026-05-06 17:08 50.23710 6.05495 29873 ft 425 kts 123°
2026-05-06 17:08 50.22135 6.09420 30173 ft 427 kts 123°
2026-05-06 17:09 50.20559 6.13364 30451 ft 429 kts 121°
2026-05-06 17:09 50.19335 6.17625 30773 ft 431 kts 108°
2026-05-06 17:09 50.18684 6.22179 31220 ft 430 kts 99°
2026-05-06 17:09 50.18561 6.26839 31637 ft 432 kts 88°
2026-05-06 17:10 50.18848 6.31506 31980 ft 433 kts 86°
2026-05-06 17:10 50.19188 6.36170 32287 ft 433 kts 86°
2026-05-06 17:10 50.19526 6.40844 32639 ft 433 kts 87°
2026-05-06 17:10 50.19844 6.45516 33035 ft 431 kts 88°
2026-05-06 17:11 50.20137 6.50097 33393 ft 430 kts 88°
2026-05-06 17:11 50.20424 6.54736 33708 ft 430 kts 88°
2026-05-06 17:11 50.20705 6.59378 34009 ft 429 kts 88°
2026-05-06 17:11 50.20973 6.64017 34232 ft 429 kts 90°
2026-05-06 17:12 50.21023 6.68668 34361 ft 430 kts 94°
2026-05-06 17:12 50.20940 6.73347 34560 ft 431 kts 95°
2026-05-06 17:12 50.20822 6.78012 34821 ft 430 kts 96°
2026-05-06 17:12 50.20700 6.82676 35033 ft 431 kts 95°
2026-05-06 17:13 50.20586 6.87369 35192 ft 434 kts 95°
2026-05-06 17:13 50.20481 6.92081 35387 ft 435 kts 95°
2026-05-06 17:13 50.20382 6.96805 35616 ft 435 kts 95°
2026-05-06 17:13 50.20285 7.01530 35812 ft 436 kts 95°
2026-05-06 17:14 50.20187 7.06273 35962 ft 438 kts 95°
2026-05-06 17:14 50.20087 7.11029 36150 ft 439 kts 95°
2026-05-06 17:14 50.19874 7.15768 36349 ft 438 kts 99°
2026-05-06 17:14 50.19524 7.20486 36511 ft 438 kts 100°
2026-05-06 17:15 50.19117 7.25209 36679 ft 439 kts 101°
2026-05-06 17:15 50.18697 7.29929 36817 ft 441 kts 101°
2026-05-06 17:15 50.18280 7.34687 36816 ft 444 kts 101°
2026-05-06 17:16 50.17477 7.44223 36824 ft 442 kts 100°
2026-05-06 17:16 50.16703 7.53695 36811 ft 439 kts 100°
2026-05-06 17:17 50.15935 7.63102 36816 ft 436 kts 101°
2026-05-06 17:17 50.15166 7.72406 36818 ft 435 kts 101°
2026-05-06 17:18 50.14383 7.81764 36825 ft 435 kts 101°
2026-05-06 17:18 50.13591 7.91132 36821 ft 437 kts 101°
2026-05-06 17:19 50.12788 8.00544 36812 ft 440 kts 101°
2026-05-06 17:19 50.11973 8.10008 36807 ft 441 kts 101°
2026-05-06 17:20 50.11147 8.19504 36811 ft 443 kts 101°
2026-05-06 17:20 50.10310 8.29036 36808 ft 445 kts 101°
2026-05-06 17:21 50.09467 8.38545 36804 ft 446 kts 101°
2026-05-06 17:21 50.08609 8.48130 36804 ft 448 kts 101°
2026-05-06 17:22 50.07742 8.57732 36796 ft 447 kts 101°
2026-05-06 17:22 50.06869 8.67315 36797 ft 446 kts 102°
2026-05-06 17:23 50.05990 8.76878 36800 ft 445 kts 102°
2026-05-06 17:23 50.05319 8.86457 36799 ft 446 kts 97°
2026-05-06 17:24 50.04940 8.96086 36801 ft 445 kts 97°
2026-05-06 17:24 50.04573 9.05694 36806 ft 444 kts 97°
2026-05-06 17:25 50.04167 9.15280 36792 ft 444 kts 97°
2026-05-06 17:25 50.03733 9.24883 36852 ft 453 kts 98°
2026-05-06 17:26 50.03274 9.34756 36797 ft 460 kts 98°
2026-05-06 17:26 50.02808 9.44681 36787 ft 460 kts 98°
2026-05-06 17:27 50.02334 9.54607 36772 ft 460 kts 98°
2026-05-06 17:27 50.01852 9.64516 36788 ft 460 kts 98°
2026-05-06 17:28 50.01360 9.74430 36786 ft 459 kts 98°
2026-05-06 17:28 50.00861 9.84317 36781 ft 458 kts 98°
2026-05-06 17:29 50.00354 9.94190 36777 ft 458 kts 98°
2026-05-06 17:29 49.99839 10.04056 36783 ft 458 kts 98°
2026-05-06 17:30 49.99316 10.13927 36781 ft 458 kts 99°
2026-05-06 17:30 49.98788 10.23716 36775 ft 458 kts 99°
2026-05-06 17:31 49.98249 10.33572 36778 ft 458 kts 99°
2026-05-06 17:31 49.97700 10.43435 36776 ft 458 kts 99°
2026-05-06 17:32 49.97145 10.53300 36774 ft 459 kts 99°
2026-05-06 17:32 49.96591 10.63184 36768 ft 460 kts 97°
2026-05-06 17:33 49.96564 10.73180 36775 ft 464 kts 92°
2026-05-06 17:33 49.96731 10.83214 36772 ft 465 kts 93°
2026-05-06 17:34 49.96843 10.93263 36779 ft 466 kts 94°
2026-05-06 17:34 49.96907 11.03334 36772 ft 467 kts 94°
2026-05-06 17:35 49.96958 11.13425 36769 ft 468 kts 94°
2026-05-06 17:35 49.96994 11.23515 36574 ft 461 kts 95°
2026-05-06 17:36 49.96733 11.33253 35775 ft 445 kts 98°
2026-05-06 17:36 49.96561 11.38046 35140 ft 444 kts 98°
2026-05-06 17:36 49.96426 11.42840 34549 ft 446 kts 97°
2026-05-06 17:36 49.96308 11.47647 34114 ft 445 kts 97°
2026-05-06 17:37 49.96193 11.52432 33788 ft 441 kts 98°
2026-05-06 17:37 49.96075 11.57168 33406 ft 437 kts 98°
2026-05-06 17:37 49.95953 11.61862 32983 ft 431 kts 98°
2026-05-06 17:37 49.95828 11.66484 32439 ft 426 kts 98°
2026-05-06 17:38 49.95698 11.71065 31856 ft 423 kts 98°
2026-05-06 17:38 49.95567 11.75602 31325 ft 419 kts 98°
2026-05-06 17:38 49.95434 11.80095 30850 ft 414 kts 98°
2026-05-06 17:38 49.95302 11.84526 30379 ft 409 kts 98°
2026-05-06 17:39 49.95170 11.88920 29869 ft 405 kts 98°
2026-05-06 17:39 49.95039 11.93207 29270 ft 401 kts 98°
2026-05-06 17:39 49.94906 11.97508 28687 ft 396 kts 98°
2026-05-06 17:39 49.94773 12.01753 28089 ft 392 kts 98°
2026-05-06 17:40 49.94640 12.05966 27495 ft 389 kts 97°
2026-05-06 17:40 49.94506 12.10140 26931 ft 385 kts 97°
2026-05-06 17:40 49.94373 12.14259 26507 ft 380 kts 97°
2026-05-06 17:40 49.94239 12.18348 26136 ft 378 kts 97°
2026-05-06 17:41 49.94104 12.22410 25771 ft 376 kts 97°
2026-05-06 17:41 49.93970 12.26452 25414 ft 374 kts 97°
2026-05-06 17:41 49.93834 12.30479 25066 ft 372 kts 97°
2026-05-06 17:41 49.93698 12.34475 24722 ft 370 kts 97°
2026-05-06 17:42 49.93576 12.38457 24450 ft 367 kts 97°
2026-05-06 17:42 49.93466 12.42399 24178 ft 365 kts 96°
2026-05-06 17:42 49.93358 12.46326 23902 ft 363 kts 96°
2026-05-06 17:42 49.93250 12.50229 23648 ft 362 kts 96°
2026-05-06 17:43 49.93140 12.54135 23376 ft 361 kts 97°
2026-05-06 17:43 49.93027 12.58022 23070 ft 360 kts 97°
2026-05-06 17:43 49.92952 12.60590 22875 ft 359 kts 97°
2026-05-06 17:43 49.92799 12.65751 22485 ft 357 kts 97°
2026-05-06 17:44 49.92722 12.68294 22303 ft 356 kts 97°
2026-05-06 17:44 49.92606 12.72112 22043 ft 354 kts 97°
2026-05-06 17:44 49.92489 12.75921 21784 ft 352 kts 97°
2026-05-06 17:44 49.92334 12.80929 21435 ft 350 kts 97°
2026-05-06 17:45 49.92253 12.83480 21257 ft 349 kts 97°
2026-05-06 17:45 49.92134 12.87237 21001 ft 348 kts 97°
2026-05-06 17:45 49.92014 12.90979 20741 ft 347 kts 97°
2026-05-06 17:45 49.91893 12.94708 20487 ft 346 kts 97°
2026-05-06 17:46 49.91771 12.98430 20232 ft 344 kts 97°
2026-05-06 17:46 49.91649 13.02138 19971 ft 344 kts 97°
2026-05-06 17:46 49.91525 13.05837 19714 ft 343 kts 97°
2026-05-06 17:46 49.91403 13.09481 19466 ft 342 kts 97°
2026-05-06 17:47 49.91275 13.13205 19161 ft 355 kts 97°
2026-05-06 17:47 49.91148 13.17194 18865 ft 385 kts 95°
2026-05-06 17:47 49.91083 13.21417 18518 ft 394 kts 94°
2026-05-06 17:47 49.91053 13.25691 17852 ft 399 kts 93°
2026-05-06 17:48 49.91032 13.29999 17176 ft 400 kts 93°
2026-05-06 17:48 49.91008 13.34322 16552 ft 399 kts 93°
2026-05-06 17:48 49.90977 13.38606 16027 ft 396 kts 93°
2026-05-06 17:48 49.90941 13.42864 15539 ft 393 kts 93°
2026-05-06 17:49 49.90899 13.47077 15043 ft 390 kts 93°
2026-05-06 17:49 49.90852 13.51269 14519 ft 388 kts 93°
2026-05-06 17:49 49.90803 13.55445 14030 ft 385 kts 93°
2026-05-06 17:49 49.90753 13.59577 13566 ft 382 kts 93°
2026-05-06 17:50 49.90701 13.63687 13058 ft 380 kts 93°
2026-05-06 17:50 49.90649 13.67752 12774 ft 371 kts 93°
2026-05-06 17:50 49.90598 13.71669 12704 ft 356 kts 93°
2026-05-06 17:50 49.90548 13.75474 12404 ft 350 kts 94°
2026-05-06 17:51 49.90495 13.79234 11981 ft 349 kts 94°
2026-05-06 17:51 49.90440 13.82989 11553 ft 347 kts 94°
2026-05-06 17:51 49.90385 13.86723 11143 ft 345 kts 94°
2026-05-06 17:51 49.90329 13.90439 10759 ft 343 kts 94°
2026-05-06 17:52 49.90273 13.94128 10377 ft 341 kts 94°
2026-05-06 17:52 49.90216 13.97790 9995 ft 339 kts 94°
2026-05-06 17:52 49.90158 14.01440 9618 ft 337 kts 94°
2026-05-06 17:52 49.90100 14.05060 9203 ft 335 kts 94°
2026-05-06 17:53 49.90041 14.08655 8840 ft 331 kts 94°
2026-05-06 17:53 49.89981 14.12212 8455 ft 329 kts 94°
2026-05-06 17:53 49.89920 14.15747 8060 ft 327 kts 94°
2026-05-06 17:53 49.89860 14.19212 7712 ft 324 kts 94°
2026-05-06 17:54 49.89798 14.22688 7368 ft 320 kts 94°
2026-05-06 17:54 49.89737 14.26129 7007 ft 318 kts 94°
2026-05-06 17:54 49.89675 14.29542 6773 ft 312 kts 94°
2026-05-06 17:54 49.89614 14.32836 6694 ft 300 kts 94°
2026-05-06 17:55 49.89551 14.36009 6613 ft 288 kts 95°
2026-05-06 17:55 49.89513 14.39058 6324 ft 282 kts 88°
2026-05-06 17:55 49.89917 14.42021 5966 ft 278 kts 76°
2026-05-06 17:55 49.90468 14.44846 5731 ft 268 kts 75°
2026-05-06 17:56 49.91011 14.47542 5566 ft 255 kts 75°
2026-05-06 17:56 49.91723 14.49977 5326 ft 246 kts 53°
2026-05-06 17:56 49.93070 14.51531 5103 ft 242 kts 20°
2026-05-06 17:56 49.94692 14.51765 4902 ft 232 kts 347°
2026-05-06 17:57 49.96173 14.50952 4855 ft 224 kts 336°
2026-05-06 17:57 49.97606 14.49990 4752 ft 225 kts 335°
2026-05-06 17:57 49.98920 14.48684 4495 ft 225 kts 314°
2026-05-06 17:57 49.99978 14.46909 4209 ft 223 kts 309°
2026-05-06 17:58 50.00926 14.45036 3912 ft 216 kts 306°
2026-05-06 17:58 50.01795 14.43224 3646 ft 201 kts 306°
2026-05-06 17:58 50.02605 14.41534 3371 ft 189 kts 307°
2026-05-06 17:58 50.03364 14.39956 3171 ft 173 kts 307°
2026-05-06 17:59 50.04074 14.38483 2932 ft 168 kts 307°
2026-05-06 17:59 50.04769 14.37036 2701 ft 168 kts 308°
2026-05-06 17:59 50.05474 14.35577 2496 ft 168 kts 308°
2026-05-06 17:59 50.06166 14.34135 2246 ft 162 kts 308°
2026-05-06 18:00 50.06831 14.32752 2022 ft 160 kts 309°
2026-05-06 18:00 50.07506 14.31367 1787 ft 160 kts 308°
2026-05-06 18:00 50.08166 14.29990 1545 ft 158 kts 308°
2026-05-06 18:00 50.08823 14.28623 1330 ft 159 kts 308°
2026-05-06 18:01 50.09478 14.27280 1206 ft 145 kts 307°
2026-05-06 18:01 50.09992 14.26213 1194 ft 101 kts 307°
2026-05-06 18:01 50.10266 14.25713 1186 ft 30 kts 335°
2026-05-06 18:01 50.10399 14.25656 1183 ft 16 kts 359°
2026-05-06 18:02 50.10450 14.25666 1181 ft 1 kts 12°
2026-05-06 18:02 50.10455 14.25668 1177 ft 0 kts 13°
2026-05-06 18:04 50.10456 14.25668 1181 ft 1 kts 13°
2026-05-06 18:04 50.10485 14.25696 1180 ft 10 kts 52°
2026-05-06 18:04 50.10498 14.25813 1176 ft 12 kts 84°
2026-05-06 18:05 50.10512 14.25949 1174 ft 13 kts 79°
2026-05-06 18:05 50.10530 14.26086 1173 ft 13 kts 79°
2026-05-06 18:05 50.10534 14.26221 1173 ft 12 kts 101°
2026-05-06 18:05 50.10494 14.26337 1169 ft 12 kts 124°
2026-05-06 18:06 50.10447 14.26444 1171 ft 12 kts 125°
2026-05-06 18:06 50.10413 14.26519 1170 ft 2 kts 125°
2026-05-06 18:06 50.10406 14.26540 1169 ft 2 kts 104°
2026-05-06 18:06 50.10415 14.26559 1171 ft 2 kts 43°
2026-05-06 18:07 50.10427 14.26574 1171 ft 2 kts 34°
2026-05-06 18:07 50.10436 14.26583 1172 ft 0 kts 34°